Regional Weather Roundup
Issued by NWS

Home | Current Version | Previous Version | Text Only | Print | Product List | Glossary On
Versions: 1 2 3 4 5 6 7 8 9 10 11 12 13 14 15 16 17 18 19 20 21 22 23 24 25 26 27 28 29 30 31 32 33 34 35 36 37 38 39 40 41 42 43 44 45 46 47 48 49 50
000
ASHW40 PHFO 280043
RWRHI

WEATHER ROUNDUP FOR HAWAII
NATIONAL WEATHER SERVICE HONOLULU HI
200 PM HST THU NOV 27 2014

THIS IS AN AUTOMATED REPORT THAT HAS NOT BEEN QUALITY CONTROLLED.

NOTE..."FAIR" INDICATES FEW OR NO CLOUDS BELOW 12,000 FEET WITH NO
SIGNIFICANT WEATHER AND/OR OBSTRUCTIONS TO VISIBILITY.

* - THESE SITES REPORT LIMITED FIELDS

HIZ001>004-280100-
KAUAI-NIIHAU-

CITY           SKY/WX    TMP DP  RH WIND       PRES   REMARKS
LIHUE APT      PTSUNNY   79  61  53 NE20      30.05F
PORT ALLEN*      N/A     81 N/A N/A E25G36      N/A
POIPU*           N/A     81 N/A N/A NE10G21     N/A
PRINCEVILLE*     N/A     75 N/A N/A MISG        N/A
KOKOLE POINT*    N/A     81 N/A N/A MISG        N/A
MOLOAA DAIRY*  NOT AVBL
WAIMEA HTS*      N/A     86  55  35 W8          N/A
PUU OPAE*        N/A     73  57  56 CALM        N/A
PUU LUA*       NOT AVBL
MAKAHA RIDGE*  NOT AVBL
$$

HIZ005>011-280100-
OAHU-

CITY           SKY/WX    TMP DP  RH WIND       PRES   REMARKS
HONOLULU       MOSUNNY   80  59  48 NE18G30   30.00F
KALAELOA       MOSUNNY   79  58  48 E12G22    30.01F
KANEOHE MCB    MOSUNNY   79  62  56 NE15G25   30.03F
WHEELER FIELD  FAIR      77  59  53 E18G24    30.02F
BELLOWS*         N/A    N/A N/A N/A NE22G28     N/A
KAHUKU*          N/A    N/A N/A N/A NE12G24     N/A
WHEELER*       NOT AVBL
WAIANAE HARBOR NOT AVBL
DILLINGHAM*      N/A     70  50  49 NE10G22     N/A
KAHUKU TRN*      N/A     70  52  52 E13G30      N/A
KAWAILOA*        N/A     73  57  56 NE17G35     N/A
KII*             N/A    N/A N/A N/A E20G26      N/A
MAKUA RANGE*     N/A     81  59  47 NE16G29     N/A
OAHU FOREST NW   N/A     64  10  12 CALM        N/A
SCHOFIELD BRK*   N/A     66  52  59 MISG        N/A
SCHOFIELD S*   NOT AVBL
WAIANAE VLY*     N/A     79  55  44 W7G29       N/A
KUAOKALA*        N/A     72  55  56 CALM        N/A
HONOULIUULI*   NOT AVBL
MOKUOLOE IS*     N/A    N/A N/A N/A MISG        N/A
PALEHUA*         N/A     82  55  39 CALM        N/A
WAIAWA PHB*    NOT AVBL
$$

HIZ012>013-280100-
MOLOKAI-

CITY           SKY/WX    TMP DP  RH WIND       PRES   REMARKS
MOLOKAI AIRPT  MOSUNNY   78  61  55 NE13G24   30.02F
KALAUPAPA      NOT AVBL
MAKAPULAPAI*     N/A     75  61  60 E21G32      N/A
MOLOKAI 1*       N/A     70  59  68 N5G26       N/A
PUU ALII*        N/A     56  55  97 E3G12       N/A
$$

HIZ016-280100-
KAHOOLAWE-

CITY           SKY/WX    TMP DP  RH WIND       PRES   REMARKS
KAHOOLAWE*       N/A     72 N/A N/A NE16G26     N/A
HAKIOAWA*      NOT AVBL
HONOKANAIA*      N/A     82  62  50 VRB18G31  29.98
KANELOA*         N/A     79  64  61 NE15G26   29.21F
KEALIALALO*    NOT AVBL
LUA MAKIKA*    NOT AVBL
$$

HIZ014>015-280100-
LANAI-

CITY           SKY/WX    TMP DP  RH WIND       PRES   REMARKS
LANAI CITY       N/A    N/A N/A N/A MISG        N/A
LANAI 1*         N/A     64  57  77 NE25G43     N/A
$$

HIZ017>028-280100-
MAUI-

CITY           SKY/WX    TMP DP  RH WIND       PRES   REMARKS
KAHULUI        PTSUNNY   81  61  50 NE22G30   30.01F
KAPALUA-W MAUI PTSUNNY   79  63  57 NE20G28   30.00
HANA AIRPORT   CLOUDY    75  63  64 NE10      30.06R
HANA*            N/A     77 N/A N/A NE12G17     N/A
HALEAKALA SUMM   N/A     57  23  26 NE9         N/A
MAALAEA BAY*   NOT AVBL
HALEAKALA*     NOT AVBL
KAUPO GAP*       N/A     72  57  60 S3G13       N/A
KULA 1*        NOT AVBL
$$

HIZ023>026-280100-
BIG ISLAND OF HAWAII COAST AND LOWER SLOPES-

CITY           SKY/WX    TMP DP  RH WIND       PRES   REMARKS
KAILUA KONA    MOSUNNY   87  64  46 SE9       29.90F
HILO           CLOUDY    74  70  87 W10       30.00F
HONOKAA*       NOT AVBL
KAWAIHAE MWT*    N/A     84 N/A N/A SW10        N/A
KAWAIHAE*        N/A     82 N/A N/A SW12        N/A
SOUTH POINT*     N/A     77 N/A N/A NE14G22     N/A
UPOLU AIRPORT*   N/A    N/A N/A N/A NE24G30     N/A
KAMUELA*       LGT RAIN  68  63  83 NE22      30.06S
HAKALAU*         N/A     57  55  92 NE3G9       N/A
KALOKO-HONOKO*   N/A     88  64  45 S7          N/A
PALI 2*          N/A     75  59  57 N21G31      N/A
KEALAKOMO*       N/A     73  57  56 NE24G35     N/A
KAUPULEHU*       N/A     82  55  39 NE14G21     N/A
KAPAPALA*        N/A     84  59  42 SE6G21      N/A
LOWER KAHUKU*    N/A     72  61  68 NE3G13      N/A
PUHE CS*       NOT AVBL
PUHO CS*         N/A     83  68  59 SW3         N/A
PTA KEAMUKU*     N/A     68  59  73 NE8G32      N/A
WAIKOLOA*        N/A    N/A N/A N/A NE23G35     N/A
$$

HIZ027>028-280100-
BIG ISLAND OF HAWAII INTERIOR AND SUMMMITS-

CITY           SKY/WX    TMP DP  RH WIND       PRES   REMARKS
BRADSHAW FIELD SUNNY     68  52  56 W7        30.27F
MK VISITOR CEN NOT AVBL
MAUNA KEA*       N/A     46  14  27 SE1G26      N/A
MAUNA LOA*       N/A    N/A N/A N/A MISG        N/A
MAUNA LOA 1*   NOT AVBL
PTA KIPUKA*      N/A     68  54  60 NW8G16      N/A
PTA RANGE 17*    N/A     66  52  59 W7G14       N/A
PTA WEST*        N/A     72  55  56 N9G18       N/A
NENE CABIN*      N/A    N/A N/A N/A E7G14       N/A
AHUMOA*          N/A     62  56  80 NW7         N/A
PTA PORTABLE*  NOT AVBL
PUU MALI*      NOT AVBL
$$

HIC003-280100-
NORTHWEST ISLANDS-

CITY           SKY/WX    TMP DP  RH WIND       PRES   REMARKS
MIDWAY ISLAND    N/A     70  64  83 S17       30.04F
MIDWAY NOS*    NOT AVBL
FRENCH FRIGATE NOT AVBL
$$

PHZ110>124-180-280100-
BUOY REPORTS

STATION/POSITION TIME  TEMP    WIND        PRES    WAVE   SWELL
                       AIR SEA DIR/SP/G            HT/PER HT/DIR
                 (UTC) (F)     (DEG/KT/KT) (MB)    (FT/S) (FT/D)
BUOY 51001       NOT AVBL
BUOY 51101       0000   74 77   50/ 17/ 19 1018.8F   9/13   8/360
BUOY 51100       0000   72 78   30/ 17/ 19 1017.3F
BUOY 51003       0000   78 81   70/ 17/ 21 1014.4F   9/ 7   7
BUOY 51004       NOT AVBL
BARBERS PT BUOY  NOT AVBL
WAIMEA BAY BUOY  0000      79                N/A     9/13   7/ 10
KAILUA BAY BUOY  0000      79                N/A     9/13   5/ 10
LANAI BUOY       0000      79                N/A     3/14   2/280
BARBERS PT 2     0000      78                N/A     3/11   2/240
PAUWELA MAUI     0000      79                N/A    10/14   7/ 10
HILO             0000      79                N/A    10/13   7/ 10
KANEOHE BAY BUOY 0000      78                N/A     8/13   3/ 10
HANALEI KAUAI    NOT AVBL
KAHULUI HARBOR   0000   76 77   50/ 16/ 22 1016.5R
HONOLULU HARBOR  0000   77      60/  7/ 14 1016.1F
KILO NALU        NOT AVBL
HILO HARBOR      0000   73     330/ 11/ 14 1015.4F
MOKUOLOE         0000   76 76   70/ 17/ 21 1017.2F
NAWILIWILI       0000      78                N/A
WHOTS BUOY       NOT AVBL
BUOY 51028       NOT AVBL
$$

......................KEY........................................
  SKY/WX - SKY CONDITIONS/PRESENT WEATHER
  TMP    - TEMPERATURE IN FAHRENHEIT
  DWPT   - DEWPOINT IN FAHRENHEIT
  RH     - RELATIVE HUMIDITY IN PERCENT
  WIND   - DIRECTION AND SPEED /MPH FOR ISLANDS...KTS FOR BUOYS/
  PRES   - MEAN SEA LEVEL PRESSURE IN INCHES OF HG
  VSB    - VISIBILITY IN MILES
  HX     - HEAT INDEX
  WCI    - WIND CHILL INDEX
  VRB    - VARIABLE WIND DIRECTION
  N/A    - NOT AVAILABLE


USA.gov is the U.S. government's official web portal to all federal, state and local government web resources and services.